Regional Weather Roundup
Issued by NWS Binghamton, NY

Home | Current Version | Previous Version | Text Only | Print | Product List | Glossary On
Versions: 1 2 3 4 5 6 7 8 9 10 11 12 13 14 15 16 17 18 19 20 21 22 23 24 25 26 27 28 29 30 31 32 33 34 35 36 37 38 39 40 41 42 43 44 45 46 47 48 49 50
000
ASUS41 KBGM 050310
RWRBGM
RWRBGM
BINGHAMTON REGIONAL WEATHER ROUNDUP
NATIONAL WEATHER SERVICE BINGHAMTON NY
1100 PM EDT MON MAY 04 2015

Note: "fair" indicates few or no clouds below 12,000 feet with no
significant weather and/or obstructions to visibility.

* = Station(s) that does not report precipitation, such as rain,
snow, etc, also no thunder or fog.

!NYZ009-015>018-022>025-036-037-044>046-055>057-062-050400
...CENTRAL NEW YORK...

CITY           SKY/WX    TMP DP  RH WIND       PRES   REMARKS
BINGHAMTON     CLOUDY    67  48  50 N7        30.16R
CORTLAND       CLOUDY    66  54  63 W6        30.17S
DANSVILLE      CLOUDY    68  54  60 N5        30.17S
ELMIRA         CLOUDY    70  54  56 W5        30.15R
ITHACA         CLOUDY    67  52  58 NW10      30.17R
MONTICELLO     CLOUDY    70  45  40 SW9       30.15S
PENN YAN       CLOUDY    68  53  58 W8        30.15R
ROME           LGT RAIN  62  53  72 W7        30.14R
SYRACUSE       CLOUDY    64  54  69 W6        30.13R
$$

!PAZ038>040-043-044-047-048-072-050400
...NORTHEAST PENNSYLVANIA...

CITY           SKY/WX    TMP DP  RH WIND       PRES   REMARKS
HAZLETON       CLOUDY    70  45  40 S7        30.21S
SCRANTON       PTCLDY    74  44  34 S7        30.14R
TOWANDA*       MOCLDY    73  46  38 MISG      30.14R
$$
&&
KEY
WCI = WIND CHILL INDEX
VSB = VISIBILITY
HX  = HEAT INDEX
$$


USA.gov is the U.S. government's official web portal to all federal, state and local government web resources and services.